DW9209 Weather Reports


time (UTC)temp
F
wind
direction
speed
knots
gust
knots
rain 1hr
in
rain 24hr
in
rain mn
in
humidity
%
barometer
mb
20260509223028 69 184 0.0 0.0 0.00 0.00 0.00 60 1005.1
20260509221534 70 184 0.0 0.0 0.00 0.00 0.00 63 1005.2
20260509220021 70 162 1.7 0.0 0.00 0.00 0.00 59 1005.1
20260509214516 70 262 0.0 0.0 0.00 0.00 0.00 59 1005.0
20260509213011 70 223 1.7 0.0 0.00 0.00 0.00 61 1005.0
20260509211506 70 220 1.7 0.0 0.00 0.00 0.00 61 1005.0
20260509210002 71 196 0.9 0.0 0.00 0.00 0.00 61 1005.0
20260509204602 71 296 2.6 0.0 0.00 0.00 0.00 58 1005.0
20260509203059 71 208 4.3 0.0 0.00 0.00 0.00 59 1005.0
20260509201555 70 215 2.6 0.0 0.00 0.00 0.00 62 1005.1
20260509194554 70 142 4.3 0.0 0.00 0.00 0.00 59 1005.3
20260509193101 71 160 5.2 0.0 0.00 0.00 0.00 61 1005.4
20260509191610 70 186 3.5 0.0 0.00 0.00 0.00 62 1005.5
20260509190105 70 189 4.3 0.0 0.00 0.00 0.00 62 1005.8
20260509184548 69 155 3.5 0.0 0.00 0.00 0.00 61 1006.1
20260509183047 69 73 0.9 0.0 0.00 0.00 0.00 63 1006.0
20260509181544 68 139 1.7 0.0 0.00 0.00 0.00 61 1006.3
20260509180041 66 1 1.7 0.0 0.00 0.00 0.00 63 1006.7
20260509174540 65 58 0.9 0.0 0.00 0.00 0.00 60 1007.1
20260509173051 66 322 3.5 0.0 0.00 0.00 0.00 60 1007.3
20260509171542 66 359 1.7 0.0 0.00 0.00 0.00 57 1007.6
20260509170037 65 74 0.9 0.0 0.00 0.00 0.00 57 1007.7
20260509164528 65 89 2.6 0.0 0.00 0.00 0.00 57 1007.8
20260509163028 65 125 1.7 0.0 0.00 0.00 0.00 59 1007.4
20260509161521 64 35 2.6 0.0 0.00 0.00 0.00 60 1007.6
20260509160019 63 167 2.6 0.0 0.00 0.00 0.00 59 1007.7
20260509154512 63 107 2.6 0.0 0.00 0.00 0.00 61 1007.8
20260509153008 62 45 1.7 0.0 0.00 0.00 0.00 62 1007.8
20260509151503 62 98 0.9 0.0 0.00 0.00 0.00 65 1007.9
20260509150100 62 76 1.7 0.0 0.00 0.00 0.00 66 1007.9
20260509144555 60 166 0.9 0.0 0.00 0.00 0.00 66 1008.3
20260509143051 59 184 0.9 0.0 0.00 0.00 0.00 69 1008.4
20260509141549 58 167 1.7 0.0 0.00 0.00 0.00 69 1008.4
20260509140042 58 183 3.5 0.0 0.00 0.00 0.00 71 1008.4
20260509134551 57 147 0.9 0.0 0.00 0.00 0.00 70 1007.9
20260509133041 57 121 1.7 0.0 0.00 0.00 0.00 72 1008.0
20260509131556 57 146 2.6 0.0 0.00 0.00 0.00 69 1008.4
20260509130048 56 167 2.6 0.0 0.00 0.00 0.00 72 1008.3
20260509124542 56 118 2.6 0.0 0.00 0.00 0.00 72 1008.4
20260509123038 56 152 1.7 0.0 0.00 0.00 0.00 74 1008.4
20260509121532 55 105 1.7 0.0 0.00 0.00 0.00 73 1008.3
20260509120034 55 89 1.7 0.0 0.00 0.00 0.00 73 1008.2
20260509114529 55 150 0.0 0.0 0.00 0.00 0.00 71 1008.3
20260509113029 55 150 0.9 0.0 0.00 0.00 0.00 71 1007.9
20260509111528 54 249 2.6 0.0 0.00 0.00 0.00 71 1007.5
20260509110028 54 214 2.6 0.0 0.00 0.00 0.00 71 1007.3
20260509104527 53 214 2.6 0.0 0.00 0.00 0.00 73 1007.3
20260509103029 52 234 2.6 0.0 0.00 0.00 0.00 74 1007.3
20260509101525 53 208 1.7 0.0 0.00 0.00 0.00 73 1007.3
20260509100026 53 212 1.7 0.0 0.00 0.00 0.00 73 1007.3
20260509094522 53 214 1.7 0.0 0.00 0.00 0.00 70 1007.3
20260509093026 54 191 2.6 0.0 0.00 0.00 0.00 69 1007.5
20260509091523 54 209 1.7 0.0 0.00 0.00 0.00 68 1007.5
20260509090026 53 200 1.7 0.0 0.00 0.00 0.00 69 1007.5
20260509084520 53 197 1.7 0.0 0.00 0.00 0.00 69 1007.7
20260509083019 53 110 3.5 0.0 0.00 0.00 0.00 69 1007.7
20260509081534 53 130 1.7 0.0 0.00 0.00 0.00 70 1007.8
20260509080017 54 134 0.9 0.0 0.00 0.00 0.00 69 1007.8
20260509074517 54 173 1.7 0.0 0.00 0.00 0.00 68 1007.9
20260509073016 54 146 0.9 0.0 0.00 0.00 0.00 67 1007.9
20260509071514 54 196 0.9 0.0 0.00 0.00 0.00 67 1007.9
20260509070014 54 194 1.7 0.0 0.00 0.00 0.00 67 1007.8
20260509064513 53 194 1.7 0.0 0.00 0.00 0.00 69 1008.2
20260509063013 52 212 0.9 0.0 0.00 0.00 0.00 70 1008.2
20260509061511 52 210 0.9 0.0 0.00 0.00 0.00 70 1008.3
20260509060011 52 259 2.6 0.0 0.00 0.00 0.00 70 1008.3
20260509054520 52 233 2.6 0.0 0.00 0.00 0.00 71 1008.3
20260509053013 53 202 2.6 0.0 0.00 0.00 0.00 69 1008.4
20260509051504 53 192 2.6 0.0 0.00 0.00 0.00 67 1008.4
20260509050008 53 199 0.9 0.0 0.00 0.00 0.00 69 1008.4
20260509044501 53 181 2.6 0.0 0.00 0.00 0.00 68 1008.3
20260509043102 54 203 2.6 0.0 0.00 0.00 0.00 67 1008.4
20260509041600 54 188 2.6 0.0 0.00 0.00 0.00 66 1008.5
20260509040111 55 187 3.5 0.0 0.00 0.00 0.00 66 1008.5
20260509034609 55 182 2.6 0.0 0.00 0.00 0.00 65 1008.6
20260509033046 55 206 2.6 0.0 0.00 0.00 0.00 65 1008.8
20260509031541 55 221 3.5 0.0 0.00 0.00 0.00 64 1008.8
20260509030039 56 188 3.5 0.0 0.00 0.00 0.00 64 1008.8
20260509024533 57 177 3.5 0.0 0.00 0.00 0.00 61 1008.8
20260509023040 57 193 3.5 0.0 0.00 0.00 0.00 62 1008.8
20260509021522 57 168 3.5 0.0 0.00 0.00 0.00 61 1008.8
20260509020018 57 193 3.5 0.0 0.00 0.00 0.00 60 1008.9
20260509014514 58 179 2.6 0.0 0.00 0.00 0.00 59 1008.8
20260509013009 59 178 2.6 0.0 0.00 0.00 0.00 58 1008.8
20260509011505 60 184 1.7 0.0 0.00 0.00 0.00 55 1008.9
20260509010100 60 137 0.9 0.0 0.00 0.00 0.00 54 1008.8
20260509004604 61 101 0.9 0.0 0.00 0.00 0.00 52 1008.7
20260509003113 62 123 2.6 0.0 0.00 0.00 0.00 51 1008.6
20260509001549 63 82 2.6 0.0 0.00 0.00 0.00 50 1008.5
20260509000104 63 81 1.7 0.0 0.00 0.00 0.00 47 1008.5
20260508234545 64 184 0.0 0.0 0.00 0.00 0.00 46 1008.3
20260508233044 65 184 0.9 0.0 0.00 0.00 0.00 47 1008.2
20260508231547 65 183 1.7 0.0 0.00 0.00 0.00 46 1008.1
20260508230043 65 174 0.0 0.0 0.00 0.00 0.00 47 1008.3
20260508224545 65 174 0.9 0.0 0.00 0.00 0.00 44 1008.1